Date String (YYYY-MM-DD hh:mm:ss) UTC,Instrument flags,Ambient pressure (hPa),Sample flow (lpm),Bypass flow (lpm),Sample temperature (°C),Ambient temperature (°C),ASC tube jacket temperature (°C),LED temperature (°C),Box temperature (°C),Sample RH (%),Span deviation,Mass concentration (μg/m³),Mass concentration (μg/m³),Mass concentration (μg/m³)
DateTimeUTC,F1_M11,P_M11,Q1_M11,Q2_M11,T1_M11,T2_M11,T3_M11,T4_M11,T5_M11,U1_M11,ZSPAN_M11,X0_M11,X2_M11,X1_M11
2022-12-08 06:00:00,,0824.7,5.01,0.00,22.3,21.1,00.0,31.1,24.1,12.3,0000.0,0012.56,0005.56,0004.69
2022-12-08 06:01:00,,0824.5,5.00,0.00,22.3,21.0,00.0,31.1,24.1,12.3,0000.0,0011.29,0005.45,0004.65
2022-12-08 06:02:00,,0824.4,5.00,0.00,22.3,21.0,00.0,31.1,24.1,12.3,0000.0,0011.40,0005.38,0004.63
2022-12-08 06:03:00,,0824.4,4.99,0.00,22.3,21.0,00.0,31.1,24.1,12.3,0000.0,0012.11,0005.37,0004.60
2022-12-08 06:04:00,,0824.5,4.99,0.00,22.3,21.0,00.0,31.1,24.2,12.3,0000.0,0012.12,0005.35,0004.59
2022-12-08 06:05:00,,0824.4,5.00,0.00,22.3,21.0,00.0,31.1,24.2,12.3,0000.0,0011.86,0005.32,0004.56
2022-12-08 06:06:00,,0824.4,5.00,0.00,22.3,21.0,00.0,31.1,24.2,12.3,0000.0,0011.54,0005.23,0004.52
2022-12-08 06:07:00,,0824.5,5.00,0.00,22.3,21.0,00.0,31.1,24.2,12.2,0000.0,0011.39,0005.16,0004.46
2022-12-08 06:08:00,,0824.4,5.00,0.00,22.3,21.0,00.0,31.1,24.2,12.2,0000.0,0012.09,0005.10,0004.40
2022-12-08 06:09:00,,0824.4,5.00,0.00,22.3,21.0,00.0,31.1,24.2,12.2,0000.0,0012.29,0005.02,0004.33
2022-12-08 06:10:00,,0824.4,5.00,0.00,22.3,21.0,00.0,31.2,24.1,12.2,0000.0,0012.09,0004.94,0004.27
2022-12-08 06:11:00,,0824.4,5.01,0.00,22.3,21.0,00.0,31.2,24.1,12.2,0000.0,0011.96,0004.92,0004.26
2022-12-08 06:12:00,,0824.3,5.01,0.00,22.3,21.0,00.0,31.2,24.0,12.2,0000.0,0012.73,0004.96,0004.26
2022-12-08 06:13:00,,0824.3,5.00,0.00,22.3,21.0,00.0,31.2,24.1,12.2,0000.0,0013.54,0004.96,0004.25
2022-12-08 06:14:00,,0824.4,4.99,0.00,22.3,20.9,00.0,31.2,24.1,12.2,0000.0,0012.89,0004.95,0004.24
2022-12-08 06:15:00,,0824.3,5.00,0.00,22.3,20.9,00.0,31.2,24.1,12.2,0000.0,0012.77,0004.96,0004.24
2022-12-08 06:16:00,,0824.2,5.00,0.00,22.3,20.9,00.0,31.2,24.1,12.1,0000.0,0012.75,0004.97,0004.24
2022-12-08 06:17:00,,0824.2,5.00,0.00,22.3,20.9,00.0,31.2,24.1,12.1,0000.0,0012.54,0005.02,0004.24
2022-12-08 06:18:00,,0824.3,4.99,0.00,22.3,20.9,00.0,31.2,24.0,12.1,0000.0,0012.64,0005.06,0004.26
2022-12-08 06:19:00,,0824.3,5.00,0.00,22.3,20.9,00.0,31.2,24.0,12.0,0000.0,0011.94,0005.09,0004.28
2022-12-08 06:20:00,,0824.3,5.00,0.00,22.3,20.9,00.0,31.2,24.0,12.0,0000.0,0011.61,0005.10,0004.30
2022-12-08 06:21:00,,0824.2,5.00,0.00,22.3,20.9,00.0,31.2,24.0,12.0,0000.0,0012.60,0005.14,0004.32
2022-12-08 06:22:00,,0824.3,5.00,0.00,22.3,20.9,00.0,31.2,24.0,11.9,0000.0,0013.26,0005.20,0004.32
2022-12-08 06:23:00,,0824.1,5.01,0.00,22.3,20.9,00.0,31.2,24.0,11.9,0000.0,0013.56,0005.22,0004.29
2022-12-08 06:24:00,,0824.1,5.00,0.00,22.3,20.8,00.0,31.2,24.0,11.8,0000.0,0012.82,0005.25,0004.28
2022-12-08 06:25:00,,0824.1,5.00,0.00,22.2,20.8,00.0,31.2,24.0,11.9,0000.0,0012.48,0005.23,0004.25
2022-12-08 06:26:00,,0824.1,4.99,0.00,22.2,20.8,00.0,31.2,24.0,11.9,0000.0,0012.42,0005.20,0004.22
2022-12-08 06:27:00,,0824.1,4.99,0.00,22.2,20.8,00.0,31.2,24.0,11.9,0000.0,0012.29,0005.16,0004.20
2022-12-08 06:28:00,,0824.1,5.00,0.00,22.2,20.8,00.0,31.2,24.0,11.7,0000.0,0012.46,0005.12,0004.17
2022-12-08 06:29:00,,0824.1,5.01,0.00,22.2,20.8,00.0,31.2,24.0,11.7,0000.0,0012.77,0005.13,0004.12
2022-12-08 06:30:00,,0824.1,5.00,0.00,22.2,20.8,00.0,31.2,24.0,11.6,0000.0,0012.97,0005.14,0004.08
2022-12-08 06:31:00,,0824.1,5.00,0.00,22.2,20.8,00.0,31.1,24.0,11.6,0000.0,0013.62,0005.14,0004.04
2022-12-08 06:32:00,,0824.1,5.00,0.00,22.2,20.8,00.0,31.1,23.9,11.6,0000.0,0013.29,0005.08,0004.00
2022-12-08 06:33:00,,0824.1,5.00,0.00,22.2,20.8,00.0,31.1,24.0,11.6,0000.0,0013.68,0005.03,0003.97
2022-12-08 06:34:00,,0824.1,5.01,0.00,22.2,20.8,00.0,31.1,23.9,11.7,0000.0,0013.74,0005.00,0003.97
2022-12-08 06:35:00,,0824.1,5.00,0.00,22.2,20.8,00.0,31.1,24.0,11.7,0000.0,0013.80,0004.98,0003.96
2022-12-08 06:36:00,,0824.1,5.00,0.00,22.2,20.8,00.0,31.1,24.0,11.6,0000.0,0014.49,0004.99,0003.95
2022-12-08 06:37:00,,0824.1,5.00,0.00,22.2,20.8,00.0,31.1,24.0,11.5,0000.0,0015.27,0004.98,0003.92
2022-12-08 06:38:00,,0824.1,5.00,0.00,22.2,20.8,00.0,31.1,24.0,11.5,0000.0,0015.45,0004.99,0003.90
2022-12-08 06:39:00,,0824.1,5.00,0.00,22.2,20.8,00.0,31.1,24.0,11.5,0000.0,0016.21,0005.00,0003.89
2022-12-08 06:40:00,,0824.1,5.00,0.00,22.2,20.8,00.0,31.1,24.0,11.6,0000.0,0016.07,0004.97,0003.89
2022-12-08 06:41:00,,0824.1,4.99,0.00,22.2,20.8,00.0,31.1,24.0,11.7,0000.0,0016.58,0004.95,0003.93
2022-12-08 06:42:00,,0824.1,5.00,0.00,22.2,20.8,00.0,31.1,24.0,11.7,0000.0,0016.74,0004.94,0003.98
2022-12-08 06:43:00,,0824.0,4.99,0.00,22.2,20.8,00.0,31.1,24.0,11.7,0000.0,0016.77,0005.06,0004.03
2022-12-08 06:44:00,,0824.1,5.00,0.00,22.2,20.9,00.0,31.1,24.0,11.7,0000.0,0016.81,0005.11,0004.07
2022-12-08 06:45:00,,0824.0,5.00,0.00,22.2,20.9,00.0,31.1,24.1,11.7,0000.0,0015.83,0005.11,0004.10
2022-12-08 06:46:00,,0824.1,5.01,0.00,22.2,20.9,00.0,31.1,24.0,11.6,0000.0,0015.41,0005.11,0004.11
2022-12-08 06:47:00,,0824.0,5.00,0.00,22.3,20.9,00.0,31.1,24.1,11.6,0000.0,0014.84,0005.15,0004.13
2022-12-08 06:48:00,,0824.0,5.00,0.00,22.3,20.9,00.0,31.1,24.0,11.6,0000.0,0014.80,0005.19,0004.16
2022-12-08 06:49:00,,0824.0,5.00,0.00,22.3,20.9,00.0,31.1,24.1,11.6,0000.0,0014.86,0005.19,0004.20
2022-12-08 06:50:00,,0824.0,5.00,0.00,22.3,20.9,00.0,31.1,24.0,11.6,0000.0,0014.38,0005.17,0004.23
2022-12-08 06:51:00,,0824.0,5.00,0.00,22.3,20.9,00.0,31.1,24.0,11.6,0000.0,0014.29,0005.24,0004.25
2022-12-08 06:52:00,,0824.0,5.00,0.00,22.3,20.9,00.0,31.1,24.0,11.7,0000.0,0014.36,0005.26,0004.27
2022-12-08 06:53:00,,0824.0,5.00,0.00,22.3,20.9,00.0,31.1,24.1,11.7,0000.0,0013.50,0005.35,0004.29
2022-12-08 06:54:00,,0824.0,4.99,0.00,22.3,20.9,00.0,31.1,24.1,11.7,0000.0,0013.22,0005.36,0004.30
2022-12-08 06:55:00,,0824.0,4.99,0.00,22.3,20.9,00.0,31.1,24.1,11.7,0000.0,0012.39,0005.37,0004.32
2022-12-08 06:56:00,,0823.9,5.00,0.00,22.3,20.9,00.0,31.1,24.1,11.7,0000.0,0012.51,0005.41,0004.34
2022-12-08 06:57:00,,0824.0,5.00,0.00,22.3,20.9,00.0,31.1,24.1,11.7,0000.0,0013.50,0005.40,0004.37
2022-12-08 06:58:00,,0823.9,5.01,0.00,22.3,20.9,00.0,31.1,24.1,11.8,0000.0,0014.84,0005.42,0004.42
2022-12-08 06:59:00,,0823.9,5.00,0.00,22.3,20.9,00.0,31.1,24.1,11.8,0000.0,0014.53,0005.46,0004.47
